| time (UTC) | temp F | wind direction | speed MPH | gust MPH | rain 1hr in | rain 24hr in | rain mn in | humidity % | barometer mb |
| 20260905060048 | 55 | 0 | 0.0 | 0.0 | 0.00 | 1.02 | 1.02 | 97 | 1015.9 |
| 20260905054554 | 55 | 0 | 0.0 | 0.0 | 0.00 | 1.03 | 1.02 | 96 | 1015.8 |
| 20260905053127 | 55 | 0 | 0.0 | 0.0 | 0.00 | 1.03 | 1.02 | 96 | 1015.9 |
| 20260905051550 | 55 | 0 | 0.0 | 0.0 | 0.00 | 1.03 | 1.02 | 96 | 1015.8 |
| 20260905050049 | 55 | 0 | 0.0 | 0.0 | 0.00 | 1.03 | 1.02 | 96 | 1015.7 |
| 20260905044553 | 55 | 0 | 0.0 | 1.0 | 0.00 | 1.13 | 1.02 | 96 | 1015.8 |
| 20260905043051 | 55 | 0 | 0.0 | 0.0 | 0.00 | 1.13 | 1.02 | 96 | 1015.7 |
| 20260905041549 | 56 | 0 | 0.0 | 0.0 | 0.00 | 1.13 | 1.02 | 96 | 1015.6 |
| 20260905040050 | 56 | 0 | 0.0 | 1.0 | 0.00 | 1.13 | 1.02 | 96 | 1015.5 |
| 20260905034553 | 56 | 0 | 0.0 | 1.0 | 0.00 | 1.14 | 1.02 | 96 | 1015.2 |
| 20260905033059 | 56 | 0 | 0.0 | 0.0 | 0.00 | 1.14 | 1.02 | 96 | 1015.1 |
| 20260905031551 | 56 | 0 | 0.0 | 0.0 | 0.00 | 1.14 | 1.02 | 96 | 1015.1 |
| 20260905030100 | 56 | 0 | 0.0 | 0.0 | 0.00 | 1.14 | 1.02 | 96 | 1014.9 |
| 20260905024600 | 57 | 0 | 0.0 | 0.0 | 0.00 | 1.16 | 1.02 | 96 | 1014.9 |
| 20260905023052 | 56 | 0 | 0.0 | 0.0 | 0.00 | 1.16 | 1.02 | 95 | 1014.8 |
| 20260905021605 | 57 | 0 | 0.0 | 0.0 | 0.09 | 1.16 | 1.02 | 95 | 1014.7 |
| 20260905020105 | 56 | 0 | 0.0 | 0.0 | 0.18 | 1.16 | 1.02 | 95 | 1014.7 |
| 20260905014552 | 56 | 0 | 0.0 | 0.0 | 0.53 | 1.18 | 1.02 | 95 | 1014.7 |
| 20260905013051 | 56 | 0 | 0.0 | 1.0 | 0.60 | 1.18 | 1.01 | 95 | 1014.6 |
| 20260905011550 | 56 | 0 | 0.0 | 1.0 | 0.55 | 1.09 | 0.92 | 94 | 1014.6 |
| 20260905010052 | 57 | 0 | 0.0 | 2.0 | 0.45 | 1.00 | 0.83 | 92 | 1014.3 |
| 20260905004551 | 58 | 0 | 0.0 | 2.0 | 0.11 | 0.66 | 0.48 | 90 | 1014.4 |
| 20260905003047 | 59 | 38 | 1.0 | 5.0 | 0.03 | 0.59 | 0.40 | 87 | 1014.0 |
| 20260905001547 | 60 | 0 | 0.0 | 1.0 | 0.00 | 0.56 | 0.37 | 88 | 1013.9 |
| 20260905000050 | 60 | 0 | 0.0 | 0.0 | 0.00 | 0.56 | 0.37 | 88 | 1013.7 |
| 20260904234555 | 60 | 0 | 0.0 | 1.0 | 0.00 | 0.59 | 0.37 | 87 | 1013.5 |
| 20260904233051 | 60 | 0 | 0.0 | 2.0 | 0.00 | 0.59 | 0.37 | 88 | 1013.6 |
| 20260904231547 | 60 | 0 | 0.0 | 2.0 | 0.00 | 0.59 | 0.37 | 88 | 1013.5 |
| 20260904230053 | 60 | 180 | 0.0 | 2.0 | 0.00 | 0.59 | 0.37 | 89 | 1013.6 |
| 20260904224602 | 60 | 27 | 0.0 | 5.0 | 0.00 | 0.59 | 0.37 | 90 | 1013.4 |
| 20260904223049 | 60 | 0 | 0.0 | 2.0 | 0.00 | 0.59 | 0.37 | 91 | 1013.5 |
| 20260904221559 | 59 | 0 | 0.0 | 4.0 | 0.00 | 0.59 | 0.37 | 90 | 1013.3 |
| 20260904220056 | 60 | 0 | 1.0 | 6.0 | 0.00 | 0.59 | 0.37 | 89 | 1013.3 |
| 20260904214551 | 60 | 160 | 0.0 | 2.0 | 0.00 | 0.59 | 0.37 | 93 | 1013.3 |
| 20260904213048 | 60 | 114 | 0.0 | 6.0 | 0.00 | 0.59 | 0.37 | 93 | 1013.3 |
| 20260904211554 | 59 | 95 | 1.0 | 5.0 | 0.01 | 0.59 | 0.37 | 94 | 1013.3 |
| 20260904210053 | 59 | 117 | 1.0 | 5.0 | 0.04 | 0.59 | 0.37 | 95 | 1013.4 |
| 20260904204548 | 57 | 110 | 1.0 | 5.0 | 0.20 | 0.59 | 0.37 | 94 | 1013.3 |
| 20260904203051 | 57 | 101 | 0.0 | 2.0 | 0.22 | 0.59 | 0.37 | 94 | 1013.2 |
| 20260904201604 | 57 | 0 | 0.0 | 2.0 | 0.21 | 0.58 | 0.35 | 93 | 1013.2 |
| 20260904200100 | 57 | 0 | 0.0 | 8.0 | 0.18 | 0.55 | 0.32 | 89 | 1013.2 |
| 20260904194604 | 60 | 200 | 0.0 | 5.0 | 0.01 | 0.38 | 0.15 | 84 | 1013.3 |
| 20260904193051 | 60 | 0 | 0.0 | 3.0 | 0.00 | 0.37 | 0.14 | 82 | 1013.2 |
| 20260904191553 | 61 | 0 | 0.0 | 3.0 | 0.00 | 0.37 | 0.14 | 85 | 1013.2 |
| 20260904190045 | 59 | 164 | 0.0 | 1.0 | 0.00 | 0.37 | 0.14 | 89 | 1013.4 |
| 20260904184556 | 58 | 50 | 0.0 | 2.0 | 0.00 | 0.42 | 0.14 | 92 | 1013.3 |
| 20260904183049 | 57 | 125 | 0.0 | 2.0 | 0.00 | 0.42 | 0.14 | 94 | 1013.3 |
| 20260904181547 | 56 | 0 | 0.0 | 2.0 | 0.00 | 0.42 | 0.14 | 95 | 1013.2 |
| 20260904180052 | 56 | 0 | 0.0 | 3.0 | 0.00 | 0.42 | 0.14 | 96 | 1013.0 |
| 20260904174551 | 56 | 97 | 0.0 | 3.0 | 0.00 | 0.47 | 0.14 | 96 | 1012.9 |
| 20260904173103 | 56 | 122 | 0.0 | 4.0 | 0.00 | 0.47 | 0.14 | 96 | 1012.9 |
| 20260904171606 | 56 | 103 | 0.0 | 3.0 | 0.00 | 0.47 | 0.14 | 96 | 1012.7 |
| 20260904170049 | 55 | 82 | 1.0 | 4.0 | 0.00 | 0.47 | 0.14 | 96 | 1012.6 |
| 20260904164555 | 55 | 95 | 0.0 | 2.0 | 0.00 | 0.47 | 0.14 | 97 | 1012.5 |
| 20260904163055 | 55 | 0 | 0.0 | 3.0 | 0.00 | 0.47 | 0.14 | 97 | 1012.3 |
| 20260904161550 | 55 | 105 | 0.0 | 4.0 | 0.00 | 0.47 | 0.14 | 97 | 1012.4 |
| 20260904160049 | 54 | 0 | 0.0 | 3.0 | 0.00 | 0.47 | 0.14 | 97 | 1012.4 |
| 20260904154549 | 54 | 105 | 0.0 | 4.0 | 0.00 | 0.49 | 0.14 | 97 | 1012.4 |
| 20260904153055 | 54 | 74 | 0.0 | 2.0 | 0.00 | 0.49 | 0.14 | 97 | 1012.2 |
| 20260904151556 | 53 | 0 | 0.0 | 3.0 | 0.00 | 0.49 | 0.14 | 97 | 1012.0 |
| 20260904150106 | 53 | 0 | 0.0 | 2.0 | 0.00 | 0.49 | 0.14 | 97 | 1011.8 |
| 20260904144556 | 53 | 0 | 0.0 | 0.0 | 0.00 | 0.55 | 0.14 | 97 | 1011.8 |
| 20260904143053 | 52 | 0 | 0.0 | 0.0 | 0.00 | 0.55 | 0.14 | 97 | 1011.7 |
| 20260904141559 | 52 | 0 | 0.0 | 0.0 | 0.00 | 0.55 | 0.14 | 97 | 1011.6 |
| 20260904140050 | 52 | 0 | 0.0 | 0.0 | 0.00 | 0.55 | 0.14 | 97 | 1011.4 |
| 20260904134556 | 52 | 0 | 0.0 | 0.0 | 0.00 | 0.63 | 0.14 | 97 | 1011.2 |
| 20260904133053 | 52 | 0 | 0.0 | 0.0 | 0.00 | 0.63 | 0.14 | 97 | 1011.1 |
| 20260904131548 | 52 | 0 | 0.0 | 0.0 | 0.00 | 0.63 | 0.14 | 97 | 1010.9 |
| 20260904130049 | 52 | 0 | 0.0 | 1.0 | 0.00 | 0.62 | 0.13 | 97 | 1010.8 |
| 20260904124551 | 52 | 0 | 0.0 | 0.0 | 0.00 | 0.65 | 0.13 | 97 | 1010.8 |
| 20260904123049 | 52 | 0 | 0.0 | 0.0 | 0.00 | 0.65 | 0.13 | 97 | 1010.7 |
| 20260904121548 | 53 | 0 | 0.0 | 0.0 | 0.00 | 0.65 | 0.13 | 97 | 1010.7 |
| 20260904120050 | 53 | 0 | 0.0 | 1.0 | 0.00 | 0.65 | 0.13 | 97 | 1010.6 |
| 20260904114551 | 52 | 0 | 0.0 | 1.0 | 0.00 | 0.76 | 0.13 | 97 | 1010.6 |
| 20260904113051 | 53 | 0 | 0.0 | 1.0 | 0.00 | 0.76 | 0.13 | 97 | 1010.3 |
| 20260904111550 | 53 | 98 | 1.0 | 3.0 | 0.00 | 0.76 | 0.13 | 97 | 1010.2 |
| 20260904110047 | 53 | 0 | 0.0 | 2.0 | 0.00 | 0.76 | 0.13 | 97 | 1010.1 |
| 20260904104553 | 53 | 0 | 0.0 | 3.0 | 0.00 | 0.79 | 0.13 | 97 | 1010.1 |
| 20260904103049 | 53 | 0 | 0.0 | 2.0 | 0.00 | 0.79 | 0.13 | 97 | 1010.1 |
| 20260904101549 | 53 | 110 | 1.0 | 3.0 | 0.01 | 0.79 | 0.13 | 97 | 1010.0 |
| 20260904100053 | 53 | 30 | 0.0 | 1.0 | 0.03 | 0.79 | 0.13 | 97 | 1009.9 |
| 20260904094601 | 53 | 75 | 0.0 | 1.0 | 0.05 | 0.80 | 0.13 | 97 | 1009.9 |
| 20260904093056 | 53 | 0 | 0.0 | 1.0 | 0.08 | 0.79 | 0.12 | 97 | 1009.8 |
| 20260904091547 | 53 | 0 | 0.0 | 1.0 | 0.11 | 0.78 | 0.11 | 96 | 1009.8 |
| 20260904090207 | 53 | 0 | 0.0 | 1.0 | 0.09 | 0.76 | 0.09 | 96 | 1009.7 |
| 20260904084552 | 53 | 0 | 1.0 | 4.0 | 0.07 | 0.74 | 0.07 | 96 | 1009.8 |
| 20260904083049 | 53 | 0 | 1.0 | 4.0 | 0.03 | 0.70 | 0.03 | 96 | 1009.8 |
| 20260904081552 | 53 | 136 | 1.0 | 3.0 | 0.00 | 0.67 | 0.00 | 96 | 1009.7 |
| 20260904080053 | 53 | 100 | 0.0 | 2.0 | 0.00 | 0.66 | 0.00 | 96 | 1009.8 |
| 20260904074549 | 53 | 98 | 0.0 | 2.0 | 0.00 | 0.66 | 0.00 | 96 | 1009.8 |
| 20260904073050 | 53 | 0 | 0.0 | 3.0 | 0.00 | 0.66 | 0.00 | 96 | 1009.6 |
| 20260904071554 | 53 | 0 | 0.0 | 1.0 | 0.00 | 0.66 | 0.00 | 96 | 1009.7 |
| 20260904070058 | 53 | 0 | 0.0 | 2.0 | 0.00 | 0.66 | 0.00 | 96 | 1009.6 |
| 20260904064550 | 53 | 0 | 0.0 | 1.0 | 0.00 | 0.66 | 0.66 | 96 | 1009.6 |
| 20260904063046 | 53 | 0 | 0.0 | 1.0 | 0.00 | 0.66 | 0.66 | 96 | 1009.7 |
| 20260904061550 | 53 | 0 | 0.0 | 1.0 | 0.00 | 0.66 | 0.66 | 96 | 1009.7 |